Weather in Jackson

United States     32°18′31″N   90°11′35″W
temp.,
°C
wind,
m/s
gust,
m/s
humid.,
%
clouds,
%
prec.,
mm/h
press.,
hPa
HPBL,
m
7 may, fri
fri701:00+15wnw310810 0.0 1020226
04:00+14n39890 0.0 1020296
07:00+13nne39880 0.0 1023330
10:00+18nne34590 0.0 1024775
13:00+20n34440 0.0 10231128
16:00+21nnw24405 0.0 10211171
19:00+18n116339 0.0 102012
22:00+15e116160 0.0 102011
8 may, sat
sat801:00+13se23625 0.0 102049
04:00+12sse367018 0.0 1019110
07:00+12sse37715 0.0 1020159
10:00+19s465482 0.0 1020456
13:00+24s46463 0.0 10191029
16:00+26s47500 0.0 10161473
19:00+23s411660 0.0 1015524
22:00+19sse514734 0.0 1016509
9 may, sun
sun901:00+17s515810 0.0 1015573
04:00+16s4159289 0.0 1015556
07:00+17s41490100 0.0 1015628
10:00+23ssw7127078 0.0 1014953
13:00+27ssw61054100 0.0 10131544
16:00+28ssw51057100 0.0 10111960
19:00+25ssw31074100 0.2 1010524
22:00+20wsw3797100 3.2 1013247
10 may, mon
mon1001:00+20nw2499100 27.4 1013232
04:00+19wsw1199100 10.6 101360
07:00+19ene1299100 21.1 101484
10:00+21sse2497100 2.0 1015311
13:00+23w348999 2.4 1015574
16:00+23n448353 0.4 1014516
19:00+22nne3591100 0.6 1015376
22:00+20n2694100 0.0 1017232
11 may, tue
tue1101:00+19ne4792100 0.2 1018429
04:00+16ne3891100 0.4 1018330
07:00+16ne3885100 0.6 1021343
10:00+16ene3893100 1.4 1021398
13:00+21ne3473100 2.2 1021792
16:00+20ne2590100 1.4 1020537
19:00+19nne2593100 1.8 1021164
22:00+17ene2793100 0.2 1022261